Weather History for Eureka, NV

Change the Weather History Date:

Monday, February 3, 2014

  Actual Average Record
Temperature  
Mean Temperature 17 °F 26 °F  
Max Temperature 32 °F 40 °F 59 °F (1995)
Min Temperature 2 °F 13 °F -16 °F (1988)
Degree Days  
Heating Degree Days 48 39  
Month to date heating degree days 153 117  
Since 1 July heating degree days 4117 4400  
Cooling Degree Days 0 0  
Month to date cooling degree days 0 0  
Year to date cooling degree days 0 0  
Moisture  
Dew Point 12 °F    
Average Humidity 72    
Maximum Humidity 86    
Minimum Humidity 58    
Precipitation  
Precipitation 0.00 in 0.02 in 0.12 in (2008)
Month to date precipitation 0.00 0.08  
Year to date precipitation 0.79 0.82  
Sea Level Pressure  
Sea Level Pressure 29.95 in    
Wind  
Wind Speed 6 mph (SSW)    
Max Wind Speed 14 mph    
Max Gust Speed 16 mph    
T = Trace of Precipitation, MM = Missing Value Source: NWS Daily Summary

Daily Weather History Graph

Daily Weather History Graph

Search for Another Location

Airport:

Trip Planner

Search our weather history database for the weather conditions in past years. The results will help you decide how hot, cold, wet, or windy it might be!

Date:

Astronomy

Feb. 03, 2014 Rise Set
Actual Time 6:49 AM PST 5:06 PM PST
Civil Twilight 6:21 AM PST 5:34 PM PST
Nautical Twilight 5:49 AM PST 6:06 PM PST
Astronomical Twilight 5:17 AM PST 6:38 PM PST
Moon 8:55 AM PST (2/3) 10:00 PM PST (2/3)
Length of Visible Light 11h 13m
Length of Day
10h 16m
Waxing Crescent, 20% of the Moon is Illuminated
Feb 3
Waxing Crescent
Feb 6
First Quarter
Feb 14
Full
Feb 22
Last Quarter
Mar 1
New

Hourly Weather History & Observations

Time (PST) Temp. Windchill Dew Point Humidity Pressure Visibility Wind Dir Wind Speed Gust Speed Precip Events Conditions
12:53 AM 10.0 °F 0.4 °F 6.1 °F 84% 29.98 in - SSW 5.8 mph - N/A   Unknown
1:53 AM 8.1 °F - 5.0 °F 87% 29.98 in - Calm Calm - N/A   Unknown
2:53 AM 8.1 °F -3.2 °F 3.0 °F 80% 29.97 in - SSW 6.9 mph - N/A   Unknown
3:53 AM 3.0 °F -6.4 °F -0.9 °F 84% 29.98 in - SSE 4.6 mph - N/A   Unknown
4:53 AM 6.1 °F -6.8 °F -0.0 °F 76% 29.98 in - SW 8.1 mph - N/A   Unknown
5:53 AM 3.0 °F -12.5 °F -0.9 °F 84% 30.03 in - SSW 10.4 mph - N/A   Unknown
6:53 AM 3.9 °F -8.2 °F -0.9 °F 80% 30.04 in - South 6.9 mph - N/A   Unknown
7:53 AM 8.1 °F -3.2 °F 3.9 °F 83% 30.01 in - SSW 6.9 mph - N/A   Unknown
8:53 AM 17.1 °F 6.6 °F 12.0 °F 81% 29.96 in - SW 8.1 mph - N/A   Unknown
9:53 AM 17.1 °F 6.6 °F 12.0 °F 81% 29.96 in - WSW 8.1 mph - N/A   Unknown
10:53 AM 24.1 °F 15.2 °F 17.1 °F 75% 29.94 in - SW 8.1 mph - N/A   Unknown
11:53 AM 26.1 °F 16.8 °F 18.0 °F 71% 29.91 in - South 9.2 mph - N/A   Unknown
12:53 PM 30.0 °F 26.5 °F 18.0 °F 61% 29.89 in - NE 3.5 mph - N/A   Unknown
1:53 PM 28.9 °F 21.9 °F 19.9 °F 69% 29.88 in - SSW 6.9 mph - N/A   Unknown
2:53 PM 30.9 °F 24.3 °F 19.9 °F 64% 29.87 in - WSW 6.9 mph - N/A   Unknown
3:53 PM 28.9 °F 18.6 °F 23.0 °F 78% 29.92 in - West 12.7 mph - N/A   Unknown
4:53 PM 28.0 °F 21.7 °F 23.0 °F 81% 29.91 in - NW 5.8 mph - N/A   Unknown
5:53 PM 25.0 °F 17.1 °F 19.9 °F 81% 29.94 in - SSW 6.9 mph - N/A   Unknown
6:53 PM 26.1 °F - 19.9 °F 78% 29.95 in - Calm Calm - N/A   Unknown
7:53 PM 23.0 °F 15.8 °F 16.0 °F 74% 29.95 in - SSW 5.8 mph - N/A   Unknown
8:53 PM 17.1 °F 10.0 °F 12.9 °F 84% 29.94 in - SSW 4.6 mph - N/A   Unknown
9:53 PM 19.0 °F 10.0 °F 14.0 °F 81% 29.95 in - SSW 6.9 mph - N/A   Unknown
10:53 PM 18.0 °F 12.7 °F 14.0 °F 84% 29.91 in - SSE 3.5 mph - N/A   Unknown
11:53 PM 19.0 °F - 12.9 °F 77% 29.89 in - Calm Calm - N/A   Unknown